www.pogodaiklimat.ru

Погода и климат >> Архив погоды >> Австрия >> Вольфсегг-ам-Хаусрукк


ПОГОДА в Вольфсегг-ам-Хаусрукке

  • Прогноз погоды в Вольфсегг-ам-Хаусрукке
  • Монитор погоды в Вольфсегг-ам-Хаусрукке

АРХИВ ПОГОДЫ в Вольфсегг-ам-Хаусрукке

Время (UTC), дата Ветер
(напр.,м/с)
 
Видим.   Явления Облачность Т
(С)
Тd
(С)
f
(%)
Тe
(С)
Тes
(С)
Комфортность P
(гПа)
Po
(гПа)
Тmin
(С)
Tmax
(С)
R
(мм)
R24
(мм)
S
(см)
19 16.08 СЗ 1 н/о н/о +17.2 +9.4 60 +18 +18 1017.0 946.7
20 16.08 ЮЗ 1 н/о н/о +17.5 +8.9 57 +19 +19 1017.2 946.9
21 16.08 ЮВ 1 н/о н/о +17.0 +9.1 60 +18 +18 1017.0 946.6
22 16.08 ЮВ 1 н/о н/о +16.5 +9.3 62 +17 +17 1017.0 946.5
23 16.08 ЮВ 2 н/о н/о +16.3 +9.2 63 +16 +16 1016.4 945.9
00 17.08 ЮВ 1 н/о н/о +16.2 +9.1 63 +17 +17 1016.1 945.6 0.0
01 17.08 В 2 н/о н/о +16.0 +8.8 62 +16 +16 1015.7 945.2
02 17.08 С 1 н/о н/о +13.4 +9.1 75 +14 +14 1016.3 945.1
03 17.08 В 2 н/о н/о +12.6 +9.8 83 +12 +12 1016.3 944.9
04 17.08 В 2 н/о н/о +12.4 +9.6 83 +11 +11 1016.6 945.2
05 17.08 ЮВ 3 н/о н/о +13.1 +9.4 78 +12 +12 1016.5 945.2
06 17.08 Ю 1 н/о н/о +13.4 +9.7 78 +14 +14 1016.4 945.2 +11.8 +18.2 0.0
07 17.08 ЮВ 2 н/о н/о +14.1 +10.1 77 +14 +14 1016.5 945.5
08 17.08 В 2 н/о н/о +16.6 +11.4 71 +17 +17 1015.7 945.4
09 17.08 ЮЗ 1 н/о н/о +19.0 +11.3 61 +21 +21 комфорт 1015.1 945.4
10 17.08 В 2 н/о н/о +18.8 +12.8 68 +20 +20 1015.2 945.4
11 17.08 В 2 н/о н/о +21.3 +14.0 63 +24 +24 комфорт 1014.0 944.9
12 17.08 ЮЗ 1 н/о н/о +22.9 +12.4 52 +26 +26 жарко 1013.4 944.7
13 17.08 В 2 н/о н/о +22.4 +14.5 61 +26 +26 жарко 1013.3 944.5
14 17.08 ЮВ 2 н/о н/о +22.0 +14.5 62 +25 +25 комфорт 1013.2 944.3
15 17.08 В 2 н/о н/о +22.6 +14.6 61 +26 +26 жарко 1012.8 944.1
16 17.08 В 1 н/о н/о +22.2 +14.1 60 +25 +25 комфорт 1012.9 944.1
17 17.08 В 3 н/о н/о +21.4 +13.8 62 +24 +24 комфорт 1012.6 943.6
18 17.08 В 3 н/о н/о +21.0 +13.5 62 +24 +24 комфорт 1012.7 943.6 +13.4 +23.3
19 17.08 В 1 н/о н/о +20.7 +13.7 64 +24 +24 комфорт 1013.0 943.8
20 17.08 СЗ 1 н/о н/о +20.9 +13.0 61 +25 +25 комфорт 1012.8 943.7 0.0
21 17.08 З 1 н/о н/о +20.5 +11.7 57 +24 +24 комфорт 1012.7 943.5 0.0
22 17.08 СЗ 1 н/о н/о +19.6 +11.2 58 +22 +22 комфорт 1013.0 943.5
23 17.08 СЗ 1 н/о н/о +19.8 +11.5 59 +22 +22 комфорт 1012.9 943.5
00 18.08 СЗ 1 н/о н/о +20.1 +10.0 52 +23 +23 комфорт 1013.1 943.7 0.0
01 18.08 штиль 0 н/о н/о +19.0 +10.6 58 +20 +20 1013.2 943.6
02 18.08 Ю 1 н/о н/о +19.2 +10.5 57 +21 +21 комфорт 1012.8 943.2
03 18.08 В 2 н/о н/о +18.3 +10.9 62 +19 +19 1012.0 942.3
04 18.08 В 2 н/о н/о +17.8 +12.0 69 +18 +18 1012.1 942.3
05 18.08 ЮВ 2 н/о н/о +17.8 +12.0 69 +18 +18 1012.1 942.3
06 18.08 ЮВ 1 н/о н/о +18.6 +12.0 65 +20 +20 1012.1 942.5 +17.7 +21.3 0.0
07 18.08 В 1 н/о н/о +20.7 +12.8 61 +24 +24 комфорт 1011.5 942.4
08 18.08 ЮЗ 1 н/о н/о +22.3 +13.6 58 +25 +25 комфорт 1011.4 942.7
09 18.08 Ю 1 н/о н/о +25.0 +15.2 55 +28 +28 жарко 1010.7 942.7
10 18.08 З 1 н/о н/о +26.7 +13.8 45 +29 +29 жарко 1010.2 942.6
11 18.08 Ю 1 н/о н/о +28.6 +13.1 38 +30 +30 жарко 1009.6 942.4
12 18.08 С 1 н/о н/о +29.7 +12.7 35 +31 +31 жарко 1009.3 942.3
13 18.08 ЮЗ 1 н/о н/о +29.8 +10.8 31 +30 +30 жарко 1009.1 942.1
14 18.08 ЮВ 2 н/о н/о +29.9 +12.6 35 +31 +31 жарко 1008.7 941.8
15 18.08 В 2 н/о н/о +30.0 +11.7 32 +31 +31 жарко 1008.2 941.4
16 18.08 В 4 н/о н/о +29.1 +13.0 37 +30 +30 жарко 1008.4 941.4
17 18.08 В 2 н/о н/о +28.1 +14.0 42 +30 +30 жарко 1008.5 941.3
18 18.08 В 2 н/о н/о +27.4 +13.7 43 +29 +29 жарко 1008.5 941.1 +18.5 +30.7
19 18.08 В 2 н/о н/о +26.6 +13.5 44 +29 +29 жарко 1008.6 941.0
20 18.08 В 3 н/о н/о +25.5 +14.4 50 +28 +28 жарко 1008.8 941.0
21 18.08 В 3 н/о н/о +25.6 +13.5 47 +28 +28 жарко 1008.6 940.8
22 18.08 В 2 н/о н/о +26.2 +12.5 43 +28 +28 жарко 1008.6 940.9
23 18.08 В 3 н/о н/о +23.8 +14.5 56 +26 +26 жарко 1008.6 940.5
00 19.08 СЗ 2 н/о н/о +22.2 +14.0 60 +25 +25 комфорт 1009.8 941.2
01 19.08 СЗ 2 н/о н/о +22.4 +13.9 59 +26 +26 жарко 1010.7 942.1
02 19.08 З 3 н/о н/о +21.4 +14.1 63 +24 +24 комфорт 1012.8 943.8
03 19.08 СЗ 6
{16}
н/о н/о +20.0 +14.5 71 +22 +22 комфорт 1014.6 945.2
04 19.08 СЗ 4
{13}
н/о н/о +18.3 +13.4 73 +19 +19 1016.8 946.8 0.0
05 19.08 З 1 н/о н/о +17.9 +13.4 75 +19 +19 1017.2 947.1 0.0
06 19.08 З 1
{16}
н/о н/о +17.6 +14.3 81 +19 +19 1017.6 947.4 +17.6 +27.7 0.0
07 19.08 З 1 н/о н/о +18.2 +14.6 80 +20 +20 1017.4 947.4
08 19.08 З 1 н/о н/о +19.5 +13.7 69 +22 +22 комфорт 1016.8 947.1
09 19.08 З 1 н/о н/о +21.1 +13.0 60 +23 +23 комфорт 1017.0 947.6
10 19.08 З 2 н/о н/о +22.9 +13.5 55 +26 +26 жарко 1016.7 947.8
11 19.08 СЗ 1 н/о н/о +22.4 +13.7 58 +26 +26 жарко 1016.6 947.6
12 19.08 СЗ 1 н/о н/о +21.5 +14.4 64 +24 +24 комфорт 1016.8 947.6
13 19.08 СЗ 1 н/о н/о +21.2 +14.3 65 +24 +24 комфорт 1017.2 947.9
14 19.08 СЗ 1 н/о н/о +20.9 +15.0 69 +25 +25 комфорт 1017.4 948.0 0.0
15 19.08 СЗ 1 н/о н/о +21.0 +14.6 67 +25 +25 комфорт 1017.1 947.8 0.0
16 19.08 ЮВ 2 н/о н/о +20.9 +15.1 69 +25 +25 комфорт 1017.0 947.7
17 19.08 ЮВ 1 н/о н/о +20.5 +15.9 75 +25 +25 комфорт 1017.0 947.6
18 19.08 ЮВ 2 н/о н/о +19.8 +15.4 76 +23 +23 комфорт 1017.3 947.7 +17.6 +22.9 0.0
19 19.08 В 1 н/о н/о +19.1 +15.3 79 +22 +22 комфорт 1018.4 948.6
20 19.08 В 1 н/о н/о +18.7 +14.8 78 +21 +21 комфорт 1018.8 948.8
21 19.08 В 2 н/о н/о +18.5 +14.7 79 +20 +20 1018.9 948.9
22 19.08 В 2 н/о н/о +18.7 +14.8 78 +20 +20 1018.8 948.8
23 19.08 штиль 0 н/о н/о +18.3 +14.5 79 +19 +19 1019.1 949.0
00 20.08 СВ 1 н/о н/о +19.0 +13.8 72 +21 +21 комфорт 1018.6 948.7
01 20.08 В 2 н/о н/о +17.0 +14.2 84 +17 +17 1018.9 948.5
02 20.08 В 1 н/о н/о +16.8 +15.2 90 +18 +18 1019.2 948.8
03 20.08 СЗ 1 н/о н/о +16.2 +14.4 89 +17 +17 1019.8 949.2
04 20.08 СЗ 1 н/о н/о +17.2 +14.5 84 +18 +18 1020.0 949.6
05 20.08 штиль 0 н/о н/о +16.7 +14.6 87 +17 +17 1020.1 949.6
06 20.08 ЮВ 1 н/о н/о +17.9 +15.2 84 +19 +19 1019.5 949.3 +15.7 +20.0
07 20.08 В 2 н/о н/о +18.5 +15.3 82 +20 +20 1019.1 949.1
08 20.08 В 2 н/о н/о +19.5 +15.5 78 +22 +22 комфорт 1018.9 949.1
09 20.08 В 3 н/о н/о +21.6 +16.2 71 +25 +25 комфорт 1018.3 949.1 0.0
10 20.08 СВ 2 н/о н/о +22.6 +16.2 67 +27 +27 душно 1017.8 948.8 0.0
11 20.08 В 3 н/о н/о +22.2 +15.3 65 +26 +26 душно 1017.7 948.6
12 20.08 СВ 2 н/о н/о +22.0 +15.7 67 +26 +26 душно 1017.6 948.5 0.0
13 20.08 штиль 0 н/о н/о +21.7 +15.5 68 +25 +25 комфорт 1017.7 948.5 0.0
14 20.08 СЗ 1 н/о в посл. час осадки н/о +21.3 +16.1 72 +25 +25 комфорт 1017.4 948.1 0.0
15 20.08 СЗ 1 н/о {осадки} н/о +20.9 +16.8 77 +26 +26 душно 1017.0 947.7 0.0
16 20.08 СЗ 2 н/о н/о +20.2 +16.6 80 +24 +24 комфорт 1017.2 947.7
17 20.08 СЗ 2 н/о н/о +19.6 +15.9 79 +22 +22 комфорт 1017.4 947.8
18 20.08 СЗ 2 н/о {осадки} н/о +18.7 +15.6 82 +20 +20 1017.9 948.0 +17.1 +23.1 0.0
19 20.08 СЗ 3 н/о н/о +18.0 +15.7 86 +18 +18 1018.6 948.5
20 20.08 З 3 н/о осадки н/о +16.2 +15.8 97 +16 +16 1020.7 950.0 5
21 20.08 З 4 н/о осадки н/о +14.4 +14.0 97 +13 +13 1022.4 951.1 5
22 20.08 З 3 н/о в посл. час осадки н/о +14.0 +13.6 97 +13 +13 1023.6 952.2 0.1
23 20.08 З 4 н/о осадки н/о +13.4 +13.1 98 +12 +12 1024.8 953.1 0.3
00 21.08 З 4 н/о осадки {ливн. осадки} н/о +13.0 +12.6 97 +11 +11 1025.4 953.6 6
01 21.08 СЗ 3 н/о ливневой дождь н/о +12.7 +12.4 98 +11 +11 1026.4 954.4 0.1
02 21.08 СЗ 2 н/о в посл. час осадки н/о +12.6 +12.3 98 +12 +12 1027.3 955.2 0.1
03 21.08 З 2 н/о осадки {ливн. осадки} н/о +12.3 +11.9 97 +11 +11 1027.4 955.2 0.5
04 21.08 СЗ 2 н/о осадки н/о +12.2 +12.0 99 +11 +11 1028.0 955.8 1
05 21.08 З 2 н/о осадки н/о +12.2 +12.0 99 +11 +11 1028.5 956.2 2
06 21.08 СЗ 1 н/о осадки {ливн. осадки} н/о +12.3 +12.1 99 +12 +12 1028.9 956.6 +12.2 +18.8 11
07 21.08 СЗ 1 н/о осадки н/о +12.6 +12.3 98 +12 +12 1028.7 956.5 0.4
08 21.08 СВ 1 н/о в посл. час осадки н/о +13.0 +12.3 96 +13 +13 1028.6 956.5 0.2
09 21.08 Ю 1 н/о в посл. час осадки н/о +13.1 +12.5 96 +13 +13 1028.6 956.6 0.8
10 21.08 В 1 н/о н/о +13.8 +12.7 93 +14 +14 1028.7 956.8
11 21.08 В 2 н/о н/о +14.1 +12.7 91 +14 +14 1028.2 956.4
12 21.08 ЮВ 2 н/о {ливн. осадки} н/о +13.9 +12.9 94 +13 +13 1028.3 956.5 0.8
13 21.08 В 3 н/о н/о +14.0 +12.6 91 +13 +13 1028.0 956.2
14 21.08 ЮВ 3 н/о н/о +14.9 +11.9 82 +14 +14 1027.6 956.0
15 21.08 В 4 н/о н/о +15.4 +11.6 78 +14 +14 1027.3 955.9
16 21.08 В 3 н/о н/о +15.3 +10.4 73 +15 +15 1027.4 955.9
17 21.08 В 4 н/о н/о +14.7 +10.5 76 +14 +14 1027.2 955.6
18 21.08 В 2 н/о н/о +14.0 +11.1 83 +13 +13 1027.4 955.6 +12.2 +15.9 0.8
19 21.08 СВ 3 н/о н/о +13.8 +10.6 81 +13 +13 1027.4 955.6
20 21.08 В 3 н/о н/о +13.6 +10.5 82 +12 +12 1027.6 955.7
21 21.08 В 3 н/о н/о +13.2 +10.8 85 +12 +12 1027.5 955.5
22 21.08 В 4 н/о н/о +12.8 +10.4 85 +11 +11 1027.4 955.3
23 21.08 В 4 н/о н/о +12.6 +11.3 92 +11 +11 1027.4 955.3
00 22.08 В 4 н/о н/о +12.3 +11.8 97 +10 +10 1026.7 954.6
01 22.08 В 5 н/о н/о +12.3 +12.1 99 +10 +10 1025.8 953.8
02 22.08 В 4 н/о н/о +12.2 +12.1 99 +10 +10 1025.8 953.7
03 22.08 В 4 н/о н/о +11.8 +11.7 99 +9 +9 1025.6 953.4
04 22.08 В 5 н/о н/о +11.5 +11.4 99 +9 +9 1025.5 953.3
05 22.08 В 5 н/о н/о +11.5 +11.4 99 +9 +9 1025.5 953.3
06 22.08 В 5 н/о н/о +12.0 +11.8 99 +9 +9 1025.6 953.5 +11.3 +14.1
07 22.08 В 5 н/о н/о +13.3 +11.6 89 +11 +11 1025.2 953.4
08 22.08 В 4 н/о н/о +13.6 +11.4 87 +12 +12 1025.1 953.4
09 22.08 В 4 н/о н/о +14.0 +11.3 84 +13 +13 1025.3 953.7
10 22.08 В 5 н/о н/о +14.7 +11.4 81 +13 +13 1025.1 953.7
11 22.08 В 5 н/о н/о +15.1 +11.5 79 +14 +14 1025.0 953.7
12 22.08 В 5 н/о н/о +16.7 +12.0 74 +16 +16 1024.5 953.6
13 22.08 В 3 н/о н/о +17.5 +12.3 72 +18 +18 1024.1 953.4
14 22.08 ЮВ 3 н/о н/о +17.2 +13.1 77 +17 +17 1024.1 953.4
15 22.08 ЮВ 2 н/о н/о +17.4 +13.1 76 +18 +18 1024.1 953.4
16 22.08 ЮВ 1 н/о н/о +17.5 +13.0 75 +19 +19 1023.9 953.2
17 22.08 ЮВ 2 н/о н/о +17.6 +13.0 74 +18 +18 1023.8 953.2
18 22.08 ЮВ 1 н/о н/о +17.0 +13.0 77 +18 +18 1024.3 953.5 +11.8 +17.9
19 22.08 Ю 1 н/о н/о +16.1 +12.9 81 +17 +17 1025.5 954.4
20 22.08 Ю 1 н/о н/о +16.4 +12.9 80 +17 +17 1025.6 954.6
21 22.08 СВ 1 н/о н/о +16.6 +13.0 79 +17 +17 1025.2 954.2
22 22.08 В 1 н/о н/о +17.0 +12.8 76 +18 +18 1025.1 954.2
23 22.08 СВ 1 н/о н/о +16.9 +12.8 77 +18 +18 1025.1 954.2
00 23.08 СВ 1 н/о н/о +16.9 +12.9 77 +18 +18 1024.9 954.0
01 23.08 СВ 1 н/о н/о +16.8 +13.0 78 +18 +18 1024.9 954.0
02 23.08 штиль 0 н/о н/о +16.0 +13.3 84 +16 +16 1025.1 954.0
03 23.08 СВ 1 н/о н/о +16.2 +13.2 82 +17 +17 1024.7 953.7
04 23.08 С 1 н/о н/о +16.1 +13.2 83 +17 +17 1024.6 953.6
05 23.08 СВ 2 н/о н/о +16.3 +13.4 83 +16 +16 1024.8 953.8
06 23.08 СВ 2 н/о н/о +16.3 +13.6 84 +16 +16 1025.1 954.1 +15.8 +17.0
07 23.08 СВ 2 н/о н/о +16.1 +13.8 86 +16 +16 1025.3 954.2
08 23.08 В 2 н/о н/о +16.2 +14.5 90 +16 +16 1025.4 954.4
09 23.08 В 4 н/о н/о +17.5 +14.2 81 +17 +17 1024.8 954.1
10 23.08 В 5 н/о н/о +18.5 +14.1 76 +19 +19 1024.2 953.8
11 23.08 В 4 н/о н/о +19.1 +14.2 73 +20 +20 1023.9 953.6
12 23.08 В 4 н/о н/о +20.0 +14.3 70 +22 +22 комфорт 1023.3 953.3
13 23.08 В 5 н/о н/о +20.6 +13.9 65 +23 +23 комфорт 1022.8 953.0
14 23.08 В 4 н/о н/о +20.8 +14.1 65 +24 +24 комфорт 1022.3 952.5
15 23.08 В 2 н/о н/о +21.1 +14.8 67 +24 +24 комфорт 1021.7 952.1
16 23.08 В 3 н/о н/о +21.3 +15.0 67 +24 +24 комфорт 1021.1 951.6
17 23.08 В 2 н/о н/о +20.8 +15.0 69 +24 +24 комфорт 1021.0 951.4

 

Местоположение метеостанции Вольфсегг-ам-Хаусрукк (Австрия): широта 48.10 долгота 13.67 высота над уровнем моря 619 м.

В архиве по умолчанию представлена погода в Вольфсегг-ам-Хаусрукке за последнюю неделю. Архивные данные за месяц целиком и за предыдущие месяцы, начиная с января 2011 года, Вы можете получить, выбрав интересующий диапазон дат из раскрывающегося списка и нажав кнопку "Ввод!".


*Определитесь, кто Вы:
робот инопланетянин человек

Внимание! Время в таблицах - всемирное. Для получения местного времени необходимо прибавить поправку, которая равна 1 ч.

Смотрите также архив погоды в соседних городах и на ближайших метеорологических станциях:

Погода в Рид-им-Иннкрайсе (Австрия) (19 км)
Погода в Франкенмаркте (Австрия) (22 км)
Погода в Гмундене (Австрия) (24 км)
Погода в Вельс / Шлайсхайм (Австрия) (31 км)
Погода в Фойеркогеле (Австрия) (31 км)
Погода в Кремсмюнстере (Австрия) (35 км)
Погода в Мондзе (Австрия) (36 км)
Погода в Линце (Австрия) (41 км)
Погода в Санкт-Вольфганге (Австрия) (44 км)
Погода в Маттзе (Австрия) (44 км)

Пояснения к столбцам:

Ветер - указаны скорость ветра в м/с - средняя за 10 мин, порывы в срок и между сроками (в фигурных скобках) и направление, откуда дует ветер: С - северный, СВ - северо-восточный, В - восточный, ЮВ - юго-восточный, Ю - южный, ЮЗ - юго-западный, З - западный, СЗ - северо-западный.
Видимость - горизонтальная дальность видимости в метрах или километрах. При видимости от 1 до 10 км при отсутствии осадков обычно наблюдается дымка, при ухудшении видимости до 1 км и менее - туман. В сухую погоду видимость может ухудшаться дымом, пылью или мглою.
Явления - указаны атмосферные явления, наблюдавшиеся в срок или в последний час перед сроком; фигурными скобками обозначены явления, наблюдавшиеся между сроками (за 1-3 часа до срока); квадратными скобками обозначены град или гололедные отложения с указанием их диаметра в мм.
Облачность - указаны через наклонную черту общая и нижняя облачность в баллах и высота нижней границы облаков в метрах; квадратными скобками обозначены формы облаков: Ci - перистые, Cs - перисто-слоистые, Cc - перисто-кучевые, Ac - высококучевые, As - высокослоистые, Sc - слоисто-кучевые, Ns - слоисто-дождевые, Cu - кучевые, Cb - кучево-дождевые. Подробнее классификацию облаков см. в Атласе облаков (PDF).
T - Температура воздуха - температура, измеренная на высоте 2 м над землей.
Td - Температура точки росы - температура, при понижении до которой содержащийся в воздухе водяной пар достигнет насыщения.
f - Относительная влажность воздуха - влажноcть воздуха, измеренная на высоте 2 м над землей.
Te - Эффективная температура - температура, которую ощущает одетый по сезону человек в тени. Характеристика душности погоды. При расчете учитывается влияние влажности воздуха и скорости ветра на теплоощущения человека.
Tes - Эффективная температура на солнце - температура, которую ощущает человек, с поправкой на солнечный нагрев. Характеристика знойности погоды. Зависит от высоты солнца над горизонтом, облачности и скорости ветра. Ночью, в пасмурную погоду, а также при ветре 12 м/с и более поправка равна нулю.
P - Атмосферное давление - приведенное к уровню моря атмосферное давление.
Po - Атмосферное давление - измеренное на уровне метеостанции атмосферное давление.
Tmin - Минимальная температура - минимум температуры воздуха на высоте 2 м над землей.
Tmax - Максимальная температура - максимум температуры воздуха на высоте 2 м над землей.
R - Количество осадков - Количество выпавших осадков за период времени, мм. При наведении курсора мыши на число - период времени, за который выпало указанное количество осадков.
R24 - Количество осадков - Количество выпавших осадков за 24 часа, мм.
S - Снежный покров - Высота снежного покрова, см. При наведении курсора мыши на число - состояние снежного покрова и степень покрытия местности в баллах.